TimeEDT,TemperatureF,Dew PointF,Humidity,Sea Level PressureIn,VisibilityMPH,Wind Direction,Wind SpeedMPH,Gust SpeedMPH,PrecipitationIn,Events,Conditions,WindDirDegrees,DateUTC
12:15 AM,64.4,57.2,77,29.86,7.0,Calm,Calm,-,N/A,,Overcast,0,2013-08-02 04:15:00
12:35 AM,64.4,57.2,77,29.85,8.0,South,3.5,-,N/A,,Overcast,180,2013-08-02 04:35:00
12:55 AM,64.4,57.2,77,29.84,9.0,South,4.6,-,N/A,,Overcast,180,2013-08-02 04:55:00
1:15 AM,64.4,57.2,77,29.84,8.0,WSW,3.5,-,N/A,,Overcast,250,2013-08-02 05:15:00
1:35 AM,64.4,57.2,77,29.83,9.0,Calm,Calm,-,N/A,,Overcast,0,2013-08-02 05:35:00
1:55 AM,64.4,57.2,77,29.83,5.0,Calm,Calm,-,N/A,,Overcast,0,2013-08-02 05:55:00
2:15 AM,64.4,57.2,77,29.82,9.0,Calm,Calm,-,N/A,,Overcast,0,2013-08-02 06:15:00
2:35 AM,64.4,57.2,77,29.81,10.0,Calm,Calm,-,N/A,,Overcast,0,2013-08-02 06:35:00
2:55 AM,64.4,57.2,77,29.81,10.0,Calm,Calm,-,N/A,,Overcast,0,2013-08-02 06:55:00
3:15 AM,64.4,57.2,77,29.81,10.0,Calm,Calm,-,N/A,,Overcast,0,2013-08-02 07:15:00
3:35 AM,64.4,57.2,77,29.80,9.0,Calm,Calm,-,N/A,,Overcast,0,2013-08-02 07:35:00
3:55 AM,64.4,57.2,77,29.80,10.0,Calm,Calm,-,N/A,,Overcast,0,2013-08-02 07:55:00
4:15 AM,64.4,57.2,77,29.80,10.0,Calm,Calm,-,N/A,,Overcast,0,2013-08-02 08:15:00
4:35 AM,64.4,57.2,77,29.81,9.0,Calm,Calm,-,N/A,,Overcast,0,2013-08-02 08:35:00
5:15 AM,64.4,59.0,83,29.81,9.0,Calm,Calm,-,N/A,,Overcast,0,2013-08-02 09:15:00
5:35 AM,64.4,57.2,77,29.81,9.0,Calm,Calm,-,N/A,,Overcast,0,2013-08-02 09:35:00
5:55 AM,64.4,57.2,77,29.81,8.0,Calm,Calm,-,N/A,,Overcast,0,2013-08-02 09:55:00
6:15 AM,64.4,59.0,83,29.82,9.0,Calm,Calm,-,N/A,,Overcast,0,2013-08-02 10:15:00
6:35 AM,64.4,57.2,77,29.82,10.0,Calm,Calm,-,N/A,,Overcast,0,2013-08-02 10:35:00
6:55 AM,64.4,57.2,77,29.83,9.0,SSW,3.5,-,N/A,,Overcast,210,2013-08-02 10:55:00
7:15 AM,64.4,59.0,83,29.84,9.0,Calm,Calm,-,N/A,,Overcast,0,2013-08-02 11:15:00
7:35 AM,66.2,57.2,73,29.84,10.0,Calm,Calm,-,N/A,,Overcast,0,2013-08-02 11:35:00
7:55 AM,66.2,57.2,73,29.84,10.0,Calm,Calm,-,N/A,,Overcast,0,2013-08-02 11:55:00
8:15 AM,66.2,57.2,73,29.84,10.0,Calm,Calm,-,N/A,,Overcast,0,2013-08-02 12:15:00
8:35 AM,66.2,59.0,78,29.84,10.0,Calm,Calm,-,N/A,,Overcast,0,2013-08-02 12:35:00
8:55 AM,68.0,57.2,68,29.84,10.0,Calm,Calm,-,N/A,,Overcast,0,2013-08-02 12:55:00
9:15 AM,69.8,59.0,68,29.84,10.0,Calm,Calm,-,N/A,,Overcast,0,2013-08-02 13:15:00
9:35 AM,69.8,59.0,68,29.84,10.0,Calm,Calm,-,N/A,,Mostly Cloudy,0,2013-08-02 13:35:00
9:55 AM,71.6,59.0,64,29.84,10.0,West,3.5,-,N/A,,Mostly Cloudy,260,2013-08-02 13:55:00
10:15 AM,71.6,59.0,64,29.83,10.0,Calm,Calm,-,N/A,,Scattered Clouds,0,2013-08-02 14:15:00
10:35 AM,73.4,59.0,61,29.83,10.0,Calm,Calm,-,N/A,,Mostly Cloudy,0,2013-08-02 14:35:00
10:55 AM,73.4,59.0,61,29.83,10.0,NW,4.6,-,N/A,,Mostly Cloudy,320,2013-08-02 14:55:00
11:35 AM,75.2,57.2,53,29.83,10.0,NNW,6.9,-,N/A,,Scattered Clouds,330,2013-08-02 15:35:00
11:55 AM,77.0,57.2,50,29.83,10.0,WSW,4.6,-,N/A,,Partly Cloudy,240,2013-08-02 15:55:00
12:15 PM,77.0,55.4,47,29.83,10.0,West,8.1,-,N/A,,Mostly Cloudy,280,2013-08-02 16:15:00
12:35 PM,78.8,55.4,44,29.82,10.0,West,8.1,-,N/A,,Mostly Cloudy,260,2013-08-02 16:35:00
12:55 PM,78.8,53.6,42,29.82,10.0,WSW,8.1,-,N/A,,Mostly Cloudy,250,2013-08-02 16:55:00
1:15 PM,78.8,53.6,42,29.82,10.0,WSW,8.1,-,N/A,,Mostly Cloudy,240,2013-08-02 17:15:00
1:35 PM,80.6,55.4,42,29.82,10.0,WSW,5.8,-,N/A,,Overcast,250,2013-08-02 17:35:00
1:55 PM,78.8,51.8,39,29.81,10.0,West,8.1,-,N/A,,Mostly Cloudy,270,2013-08-02 17:55:00
2:15 PM,80.6,53.6,39,29.81,10.0,WNW,11.5,16.1,N/A,,Partly Cloudy,290,2013-08-02 18:15:00
2:35 PM,78.8,51.8,39,29.81,10.0,NW,11.5,18.4,N/A,,Clear,310,2013-08-02 18:35:00
2:55 PM,80.6,51.8,37,29.82,10.0,WSW,9.2,16.1,N/A,,Clear,250,2013-08-02 18:55:00
3:15 PM,80.6,51.8,37,29.81,6.0,West,8.1,-,N/A,,Clear,260,2013-08-02 19:15:00
3:35 PM,80.6,51.8,37,29.80,10.0,WSW,8.1,-,N/A,,Partly Cloudy,250,2013-08-02 19:35:00
3:55 PM,80.6,51.8,37,29.81,10.0,WNW,5.8,17.3,N/A,,Partly Cloudy,290,2013-08-02 19:55:00
4:15 PM,80.6,51.8,37,29.81,10.0,West,8.1,17.3,N/A,,Partly Cloudy,260,2013-08-02 20:15:00
4:35 PM,78.8,51.8,39,29.81,10.0,West,9.2,19.6,N/A,,Partly Cloudy,260,2013-08-02 20:35:00
4:55 PM,80.6,51.8,37,29.81,10.0,SW,8.1,17.3,N/A,,Clear,230,2013-08-02 20:55:00
5:15 PM,78.8,51.8,39,29.81,10.0,West,8.1,19.6,N/A,,Clear,260,2013-08-02 21:15:00
5:35 PM,78.8,50.0,36,29.81,10.0,West,9.2,20.7,N/A,,Clear,270,2013-08-02 21:35:00
5:55 PM,78.8,51.8,39,29.81,10.0,West,6.9,-,N/A,,Clear,280,2013-08-02 21:55:00
6:15 PM,78.8,51.8,39,29.81,10.0,West,6.9,-,N/A,,Clear,280,2013-08-02 22:15:00
6:35 PM,77.0,51.8,41,29.81,10.0,West,3.5,-,N/A,,Clear,280,2013-08-02 22:35:00
6:55 PM,75.2,51.8,44,29.82,10.0,West,3.5,-,N/A,,Clear,270,2013-08-02 22:55:00
7:15 PM,75.2,53.6,47,29.83,10.0,West,3.5,-,N/A,,Partly Cloudy,270,2013-08-02 23:15:00
7:35 PM,75.2,51.8,44,29.82,10.0,WSW,3.5,-,N/A,,Partly Cloudy,250,2013-08-02 23:35:00
7:55 PM,69.8,55.4,60,29.83,10.0,South,3.5,-,N/A,,Clear,190,2013-08-02 23:55:00
8:15 PM,68.0,55.4,64,29.83,10.0,South,3.5,-,N/A,,Clear,180,2013-08-03 00:15:00
8:35 PM,66.2,55.4,68,29.84,10.0,Calm,Calm,-,N/A,,Scattered Clouds,0,2013-08-03 00:35:00
8:55 PM,66.2,55.4,68,29.85,10.0,Calm,Calm,-,N/A,,Mostly Cloudy,0,2013-08-03 00:55:00
9:15 PM,66.2,55.4,68,29.85,10.0,South,3.5,-,N/A,,Partly Cloudy,180,2013-08-03 01:15:00
9:35 PM,66.2,55.4,68,29.86,10.0,SSW,5.8,-,N/A,,Mostly Cloudy,210,2013-08-03 01:35:00
9:55 PM,66.2,55.4,68,29.86,10.0,South,3.5,-,N/A,,Overcast,190,2013-08-03 01:55:00
10:15 PM,66.2,55.4,68,29.86,10.0,Calm,Calm,-,N/A,,Mostly Cloudy,0,2013-08-03 02:15:00
10:35 PM,66.2,55.4,68,29.86,10.0,West,4.6,-,N/A,,Overcast,270,2013-08-03 02:35:00
10:55 PM,64.4,55.4,73,29.86,10.0,Calm,Calm,-,N/A,,Mostly Cloudy,0,2013-08-03 02:55:00
11:15 PM,64.4,55.4,73,29.86,10.0,Calm,Calm,-,N/A,,Mostly Cloudy,0,2013-08-03 03:15:00
11:35 PM,62.6,55.4,77,29.86,10.0,SSW,4.6,-,N/A,,Overcast,200,2013-08-03 03:35:00
11:55 PM,62.6,55.4,77,29.86,10.0,Calm,Calm,-,N/A,,Overcast,0,2013-08-03 03:55:00